YAOGAN-24

Last updated on Sun Apr 12 2026 00:02:35 GMT+0000 (Coordinated Universal Time)

1 40310U 14072A 26101.51888229 .00000285 00000+0 48907-4 0 9991 2 40310 98.1373 238.3337 0015152 115.0254 245.2530 14.76135103613880
UTC large
Height (km)
Speed (km/s)
/
Latitude / Longitude
Inclination (degrees)
Orbital Period (minutes)
Azimuth
Elevation
Range (km)
Doppler Factor

Next 0 passes for location: London (51.5072 / 0.1276)

Sorry there are no passes over London.
YAOGAN-24